Content
SEND FEEDBACK

Daily
Averages
Monthly
Summary
United States of America

CHAMPAIGN, ILLINOIS


Home > North America > United States > Illinois
Elevation: 736 feet     Latitude: 40 05N     Longitude: 088 13W

WEATHER
 
SELECT A DAY
Number of Records: 200,507;   Date Range: 1/1/95 - 12/26/14
 
SHARE

PRINT THIS DATA

[ ← Previous Day ]
WEATHER ALMANAC - SEPTEMBER 8, 2013
[ Next Day → ]
[ °C ]   °F
Weather ElementAverageHighLow
Temperature76.3 °F86 °F (2:53 pm)68 °F (5:53 am)
Dewpoint68.5 °F72 °F (6:53 pm)66 °F (5:53 am)
Humidity78.3 %93 % (4:53 am)55 % (2:53 pm)
Barometer29.95 in29.99 in (10:53 am)29.92 in (4:53 pm)
Wind Speed3.3 mph8.1 mph (10:53 am)
Weather ElementAverage
Visibility8.7 mi
Wind DirectionENE (78.7 °)

Weather ElementTotal
Precipitation0.01 in
Cooling Degree Days12 (Base 65)
Growing Degree Days27 (Base 50)
Averaged from 23 records on September 8, 2013
WEATHER CONDITIONS BREAKOUT
WIND DIRECTION BREAKOUT
WEATHER BY HOUR - SEPTEMBER 8, 2013
[ °C ]   °F
Local TimeTemperatureDewpointHumidityBarometerVisibilityWind DirectionWind SpeedGust SpeedPrecipitationEventsConditions
1:53 AM71.1 °F66.9 °F87 %29.93 in8.0 miESE (120°)3.5 mphMostly Cloudy
2:53 AM70.0 °F66.9 °F90 %29.93 in7.0 miCalmMostly Cloudy
3:53 AM70.0 °F66.9 °F90 %29.94 in8.0 miCalm0.01 inPartly Cloudy
4:53 AM69.1 °F66.9 °F93 %29.94 in8.0 miCalmClear
5:53 AM68.0 °F66.0 °F93 %29.93 in7.0 miCalmClear
6:53 AM69.1 °F66.9 °F93 %29.94 in7.0 miEast (100°)3.5 mphPartly Cloudy
7:53 AM72.0 °F68.0 °F87 %29.96 in8.0 miCalmClear
8:53 AM73.0 °F69.1 °F87 %29.97 in8.0 miCalmPartly Cloudy
9:53 AM79.0 °F68.0 °F69 %29.98 in10.0 miCalmPartly Cloudy
10:53 AM81.0 °F68.0 °F65 %29.99 in10.0 miEast (100°)8.1 mphPartly Cloudy
11:53 AM82.0 °F69.1 °F65 %29.98 in10.0 miEast (100°)5.8 mphScattered Clouds
12:53 PM84.0 °F68.0 °F58 %29.97 in10.0 miEast (100°)6.9 mphClear
1:53 PM84.9 °F69.1 °F59 %29.96 in10.0 miEast (100°)6.9 mphScattered Clouds
2:53 PM86.0 °F68.0 °F55 %29.95 in10.0 miSE (130°)4.6 mphClear
3:53 PM86.0 °F69.1 °F57 %29.93 in10.0 miVariable5.8 mphClear
4:53 PM86.0 °F70.0 °F59 %29.92 in10.0 miEast (90°)3.5 mphClear
5:53 PM84.0 °F71.1 °F65 %29.92 in10.0 miESE (110°)4.6 mphClear
6:53 PM79.0 °F72.0 °F79 %29.92 in10.0 miESE (120°)3.5 mphClear
7:53 PM75.9 °F71.1 °F85 %29.94 in9.0 miEast (90°)3.5 mphClear
8:53 PM73.0 °F70.0 °F90 %29.95 in8.0 miSE (140°)4.6 mphClear
9:53 PM72.0 °F70.0 °F93 %29.95 in7.0 miSouth (170°)3.5 mphClear
10:53 PM70.0 °F68.0 °F93 %29.95 in7.0 miSSE (160°)3.5 mphClear
11:53 PM70.0 °F66.9 °F90 %29.96 in9.0 miSouth (180°)3.5 mphClear
Hourly data recorded from KCMI, located miles away from Champaign, Illinois







STORIES FROM OUR PARTNERS